TimeEST,TemperatureF,Dew PointF,Humidity,Sea Level PressureIn,VisibilityMPH,Wind Direction,Wind SpeedMPH,Gust SpeedMPH,PrecipitationIn,Events,Conditions,WindDirDegrees,DateUTC
12:53 AM,39.9,30.9,70,30.01,10.0,WNW,10.4,18.4,N/A,,Clear,300,2013-02-15 05:53:00
1:53 AM,37.9,28.0,68,30.02,10.0,WNW,5.8,-,N/A,,Clear,290,2013-02-15 06:53:00
2:53 AM,37.0,28.0,70,30.04,10.0,Calm,Calm,-,N/A,,Partly Cloudy,0,2013-02-15 07:53:00
3:53 AM,34.0,28.0,79,30.03,10.0,SSE,3.5,-,N/A,,Clear,150,2013-02-15 08:53:00
4:53 AM,33.1,27.0,78,30.04,9.0,South,3.5,-,N/A,,Clear,170,2013-02-15 09:53:00
5:53 AM,32.0,27.0,82,30.06,9.0,Calm,Calm,-,N/A,,Mostly Cloudy,0,2013-02-15 10:53:00
6:53 AM,30.0,26.1,85,30.07,8.0,Calm,Calm,-,N/A,,Overcast,0,2013-02-15 11:53:00
7:53 AM,30.9,27.0,85,30.09,6.0,Calm,Calm,-,N/A,,Overcast,0,2013-02-15 12:53:00
8:53 AM,33.1,28.9,85,30.10,8.0,Calm,Calm,-,N/A,,Overcast,0,2013-02-15 13:53:00
9:53 AM,37.9,28.0,68,30.11,9.0,WSW,3.5,-,N/A,,Overcast,240,2013-02-15 14:53:00
10:53 AM,39.0,26.1,60,30.10,10.0,WNW,8.1,-,N/A,,Overcast,290,2013-02-15 15:53:00
11:37 AM,37.4,26.6,65,30.09,3.0,Variable,4.6,-,N/A,,Haze,0,2013-02-15 16:37:00
11:53 AM,37.0,28.0,70,30.10,3.0,Variable,4.6,-,0.00,Snow,Light Snow,0,2013-02-15 16:53:00
12:10 PM,35.6,30.2,81,30.08,2.0,WSW,3.5,-,0.00,Snow,Light Snow,240,2013-02-15 17:10:00
12:36 PM,35.6,32.0,87,30.07,4.0,West,3.5,-,0.01,,Overcast,280,2013-02-15 17:36:00
12:53 PM,36.0,32.0,86,30.09,4.0,West,3.5,-,0.01,,Overcast,270,2013-02-15 17:53:00
1:53 PM,37.0,30.9,79,30.07,5.0,South,5.8,-,N/A,,Haze,180,2013-02-15 18:53:00
2:53 PM,35.1,32.0,89,30.07,3.0,West,4.6,-,0.01,Rain,Light Rain,260,2013-02-15 19:53:00
3:53 PM,37.0,33.1,86,30.06,7.0,South,4.6,-,0.01,,Overcast,190,2013-02-15 20:53:00
4:11 PM,37.4,33.8,87,30.05,6.0,South,8.1,-,N/A,,Overcast,180,2013-02-15 21:11:00
4:22 PM,37.4,33.8,87,30.05,6.0,South,5.8,-,N/A,,Overcast,190,2013-02-15 21:22:00
4:53 PM,37.0,33.1,86,30.07,8.0,South,6.9,-,N/A,,Overcast,170,2013-02-15 21:53:00
5:03 PM,37.4,33.8,87,30.05,8.0,South,8.1,-,N/A,,Overcast,190,2013-02-15 22:03:00
5:34 PM,35.6,33.8,93,30.05,8.0,SSW,6.9,-,0.00,,Overcast,200,2013-02-15 22:34:00
5:46 PM,35.6,33.8,93,30.05,8.0,SSW,6.9,-,0.00,,Overcast,210,2013-02-15 22:46:00
5:53 PM,36.0,33.1,89,30.08,8.0,SSW,4.6,-,0.00,,Overcast,210,2013-02-15 22:53:00
6:13 PM,35.6,33.8,93,30.07,6.0,WSW,10.4,17.3,0.00,Rain,Light Rain,240,2013-02-15 23:13:00
6:22 PM,33.8,30.2,87,30.06,1.2,WNW,8.1,23.0,0.05,Snow,Light Snow,290,2013-02-15 23:22:00
6:27 PM,33.8,30.2,87,30.07,4.0,West,5.8,-,0.05,Snow,Light Snow,270,2013-02-15 23:27:00
6:40 PM,33.8,30.2,87,30.07,10.0,West,6.9,-,0.05,,Overcast,270,2013-02-15 23:40:00
6:53 PM,33.1,30.0,89,30.10,10.0,West,5.8,-,0.05,,Overcast,270,2013-02-15 23:53:00
7:53 PM,33.1,30.0,89,30.12,10.0,WNW,6.9,-,N/A,,Overcast,290,2013-02-16 00:53:00
8:53 PM,32.0,28.9,88,30.12,9.0,Calm,Calm,-,N/A,,Mostly Cloudy,0,2013-02-16 01:53:00
9:53 PM,30.9,28.9,92,30.13,6.0,West,3.5,-,N/A,,Overcast,270,2013-02-16 02:53:00
10:53 PM,32.0,28.0,85,30.12,7.0,Calm,Calm,-,N/A,,Overcast,0,2013-02-16 03:53:00
11:33 PM,32.0,28.4,87,30.10,7.0,WNW,4.6,-,N/A,,Overcast,290,2013-02-16 04:33:00
11:53 PM,32.0,28.0,85,30.12,4.0,WNW,5.8,-,0.00,Snow,Light Snow,300,2013-02-16 04:53:00